カタログに戻る

ARIANE 5 DEB

SYLDA

運用中HEO
NORAD 39511·DEBRIS·🇫🇷 France

打ち上げ Feb 6, 2014 から Guiana Space Centre

Loading…

次のパス (今後24時間)

TLE

最新Source: Space-Track

元期: Sep 14, 2026, 16:47 UTC

1 39511U 14006D   26257.69932015  .00052293  00000-0  43249-2 0  9992
2 39511   5.7757 310.2591 4972563  59.6530 340.2719  5.71613107171283

AllMySatでARIANE 5 DEBをリアルタイム追跡

Download on the App Store